Bangkok (Don Mueang), Thailand

5:15 AM +07 on May 01, 2017 (GMT +0700)
Bangkok International

Weather History for VTBD - October, 2013

Change the Weather History Date:

Sunday, October 6, 2013

  Actual Average Record
Temperature  
Mean Temperature 83 °F -  
Max Temperature 88 °F 89 °F 95 °F (1996)
Min Temperature 78 °F 76 °F 74 °F (2015)
Cooling Degree Days 18    
Growing Degree Days 33 (Base 50)    
Moisture  
Dew Point 75 °F    
Average Humidity 77    
Maximum Humidity 94    
Minimum Humidity 52    
Precipitation  
Precipitation 0.59 in 0.20 in - ()
Sea Level Pressure  
Sea Level Pressure 29.74 in    
Wind  
Wind Speed 6 mph ()    
Max Wind Speed 14 mph    
Max Gust Speed -    
Visibility 4.4 miles    
Events Rain , Thunderstorm    
Averages and records for this station are not official NWS values.
T = Trace of Precipitation, MM = Missing Value Source: Averaged Metar Reports

Daily Weather History Graph

Daily Weather History Graph

Search for Another Location

Airport or City:

Trip Planner

Search our weather history database for the weather conditions in past years. The results will help you decide how hot, cold, wet, or windy it might be!

Date:

Astronomy

Oct. 06, 2013 Rise Set
Actual Time 6:07 AM +07 6:03 PM +07
Civil Twilight 5:46 AM +07 6:25 PM +07
Nautical Twilight 5:21 AM +07 6:49 PM +07
Astronomical Twilight 4:56 AM +07 7:14 PM +07
Moon 7:01 AM +07 (10/6) 7:01 PM +07 (10/6)
Length of Visible Light 12h 39m
Length of Day
11h 56m
New Moon, 2% of the Moon is Illuminated
Oct 6
New Moon
Oct 12
First Quarter
Oct 19
Full
Oct 27
Last Quarter
Nov 3
New

Hourly Weather History & Observations

Time (+07) Temp. Heat Index Dew Point Humidity Pressure Visibility Wind Dir Wind Speed Gust Speed Precip Events Conditions
12:00 AM 86.0 °F 93.4 °F 73.4 °F 66% 29.77 in 5.0 mi SSE 3.5 mph - N/A   Mostly Cloudy
12:30 AM 84.2 °F 92.3 °F 75.2 °F 74% 29.77 in 4.3 mi South 3.5 mph - N/A   Mostly Cloudy
1:00 AM 83 °F - 75 °F 70% 29.77 in 4 mi SE 3.5 mph - -   Mist
1:00 AM 82.4 °F 89.5 °F 75.2 °F 79% 29.77 in 4.3 mi SE 3.5 mph - N/A   Mostly Cloudy
1:30 AM 82.4 °F 89.5 °F 75.2 °F 79% 29.74 in 4.3 mi NW 3.5 mph - N/A   Mostly Cloudy
2:00 AM 80.6 °F 86.2 °F 75.2 °F 84% 29.74 in 4.3 mi West 2.3 mph - N/A   Mostly Cloudy
2:30 AM 80.6 °F 86.2 °F 75.2 °F 84% 29.74 in 3.7 mi Calm Calm - N/A   Mostly Cloudy
3:00 AM 80.6 °F 86.2 °F 75.2 °F 84% 29.71 in 3.7 mi Calm Calm - N/A   Mostly Cloudy
3:30 AM 80.6 °F 86.2 °F 75.2 °F 84% 29.74 in 3.7 mi NNW 4.6 mph - N/A   Mostly Cloudy
4:00 AM 80.6 °F 86.2 °F 75.2 °F 84% 29.74 in 3.7 mi NNW 6.9 mph - N/A   Mostly Cloudy
4:30 AM 80.6 °F 87.1 °F 77.0 °F 89% 29.71 in 3.7 mi NNW 3.5 mph - N/A   Mostly Cloudy
5:00 AM 80.6 °F 87.1 °F 77.0 °F 89% 29.71 in 3.7 mi NNW 5.8 mph - N/A   Mostly Cloudy
5:30 AM 82.4 °F 89.5 °F 75.2 °F 79% 29.74 in 3.7 mi North 6.9 mph - N/A   Mostly Cloudy
6:00 AM 82.4 °F 89.5 °F 75.2 °F 79% 29.71 in 3.1 mi North 6.9 mph - N/A   Mostly Cloudy
6:30 AM 82.4 °F 89.5 °F 75.2 °F 79% 29.74 in 3.1 mi North 11.5 mph - N/A   Mostly Cloudy
7:00 AM 83 °F - 74 °F 67% 29.75 in 4 mi NNE 11.5 mph - -   Mist
7:00 AM 82.4 °F 88.2 °F 73.4 °F 74% 29.74 in 3.7 mi North 11.5 mph - N/A   Mostly Cloudy
7:30 AM 82.4 °F 88.2 °F 73.4 °F 74% 29.74 in 3.7 mi North 9.2 mph - N/A   Mostly Cloudy
8:00 AM 84.2 °F 90.9 °F 73.4 °F 70% 29.77 in 4.3 mi North 13.8 mph - N/A   Mostly Cloudy
8:30 AM 84.2 °F 92.3 °F 75.2 °F 74% 29.77 in 4.3 mi NE 6.9 mph - N/A   Mostly Cloudy
9:00 AM 84.2 °F 90.9 °F 73.4 °F 70% 29.77 in 4.3 mi NNE 11.5 mph - N/A   Mostly Cloudy
9:30 AM 86.0 °F 91.8 °F 71.6 °F 62% 29.77 in 4.3 mi NE 9.2 mph - N/A   Mostly Cloudy
10:00 AM 87.8 °F 93.8 °F 71.6 °F 58% 29.77 in 4.3 mi ENE 13.8 mph - N/A   Mostly Cloudy
10:30 AM 87.8 °F 93.8 °F 71.6 °F 58% 29.77 in 5.0 mi ENE 13.8 mph - N/A   Mostly Cloudy
11:00 AM 89.6 °F 96.2 °F 71.6 °F 55% 29.77 in 5.0 mi NE 12.7 mph - N/A   Mostly Cloudy
11:30 AM 91.4 °F 98.4 °F 71.6 °F 52% 29.74 in 5.0 mi NE 11.5 mph - N/A   Mostly Cloudy
12:00 PM 87.8 °F 93.8 °F 71.6 °F 58% 29.74 in 4.3 mi NNE 9.2 mph - N/A   Overcast
12:30 PM 87.8 °F 93.8 °F 71.6 °F 58% 29.74 in 4.3 mi NNE 9.2 mph - N/A   Overcast
1:00 PM 87.8 °F 93.8 °F 71.6 °F 58% 29.71 in 4.3 mi NE 11.5 mph - N/A   Overcast
1:30 PM 87.8 °F 93.8 °F 71.6 °F 58% 29.68 in 4.3 mi NNE 13.8 mph - N/A   Overcast
2:00 PM 89.6 °F 98.2 °F 73.4 °F 59% 29.68 in 4.3 mi NE 9.2 mph - N/A   Mostly Cloudy
2:30 PM 89.6 °F 98.2 °F 73.4 °F 59% 29.68 in 4.3 mi NNE 8.1 mph - N/A   Mostly Cloudy
3:00 PM 86.0 °F 93.4 °F 73.4 °F 66% 29.68 in 5.0 mi ENE 5.8 mph - N/A   Mostly Cloudy
3:30 PM 86.0 °F 95.1 °F 75.2 °F 70% 29.68 in 1.9 mi ENE 8.1 mph - N/A Rain Rain
4:00 PM 84.2 °F 94.1 °F 77.0 °F 79% 29.68 in 5.0 mi South 2.3 mph - N/A Rain Light Rain
4:30 PM 84.2 °F 94.1 °F 77.0 °F 79% 29.68 in 5.0 mi East 3.5 mph - N/A   Mostly Cloudy
5:00 PM 86.0 °F 96.9 °F 77.0 °F 74% 29.68 in 5.0 mi East 3.5 mph - N/A Rain Light Rain
5:30 PM 84.2 °F 96.1 °F 78.8 °F 84% 29.68 in 5.6 mi South 4.6 mph - N/A   Mostly Cloudy
6:00 PM 82.4 °F 92.4 °F 78.8 °F 89% 29.68 in 5.0 mi South 3.5 mph - N/A   Mostly Cloudy
6:30 PM 82.4 °F 90.9 °F 77.0 °F 84% 29.71 in 5.0 mi East 9.2 mph - N/A Rain , Thunderstorm Light Thunderstorms and Rain
7:00 PM 82 °F - 80 °F 91% 29.75 in 2 mi ENE 13.8 mph - - Rain , Thunderstorm Thunderstorms and Rain
7:00 PM 82.4 °F 94.0 °F 80.6 °F 94% 29.74 in 1.9 mi ENE 13.8 mph - N/A Rain , Thunderstorm Thunderstorms and Rain
7:30 PM 78.8 °F - 75.2 °F 89% 29.74 in 5.0 mi ENE 4.6 mph - N/A Rain Light Rain
8:00 PM 78.8 °F - 75.2 °F 89% 29.74 in 6.2 mi ENE 4.6 mph - N/A   Mostly Cloudy
8:30 PM 78.8 °F - 75.2 °F 89% 29.77 in 5.6 mi ENE 5.8 mph - N/A Rain Light Rain
9:00 PM 78.8 °F - 77.0 °F 94% 29.77 in 4.3 mi ENE 6.9 mph - N/A Rain Light Rain
9:30 PM 78.8 °F - 77.0 °F 94% 29.77 in 5.6 mi North 3.5 mph - N/A Rain Light Rain
10:00 PM 78.8 °F - 77.0 °F 94% 29.77 in 6.2 mi ENE 5.8 mph - N/A   Mostly Cloudy
10:30 PM 78.8 °F - 77.0 °F 94% 29.77 in 6.2 mi East 3.5 mph - N/A   Mostly Cloudy
11:00 PM 78.8 °F - 77.0 °F 94% 29.77 in 5.0 mi ESE 3.5 mph - N/A   Mostly Cloudy
11:30 PM 78.8 °F - 77.0 °F 94% 29.77 in 5.0 mi SE 3.5 mph - N/A Rain Light Rain